Date,TemperatureHighF,TemperatureAvgF,TemperatureLowF,DewpointHighF,DewpointAvgF,DewpointLowF,HumidityHigh,HumidityAvg,HumidityLow,PressureMaxIn,PressureMinIn,WindSpeedMaxMPH,WindSpeedAvgMPH,GustSpeedMaxMPH,PrecipitationSumIn
2013-1-1,55,40,33,40,33,28,89,77,52,30.22,30.14,6,1,21,0.00
2013-1-2,58,41,33,37,29,23,83,64,44,30.21,30.12,7,2,7,0.00
2013-1-3,61,42,33,42,34,29,85,75,46,30.23,30.12,6,1,6,0.00
2013-1-4,60,43,34,42,33,28,85,68,41,30.27,30.17,6,1,6,0.00
2013-1-5,60,47,38,37,31,27,70,54,35,30.24,30.05,9,1,9,0.00
2013-1-6,46,42,37,40,37,33,90,83,63,30.12,30.06,7,0,7,0.27
2013-1-7,46,39,34,39,35,32,92,86,76,30.21,30.07,10,1,10,0.00
2013-1-8,60,42,34,46,37,31,91,82,58,30.21,30.14,6,1,6,0.02
2013-1-9,65,50,38,48,40,33,89,69,47,30.15,29.94,12,1,12,0.04
2013-1-10,49,36,29,38,30,25,90,80,60,30.08,29.95,16,1,16,0.06
2013-1-11,49,35,28,34,26,22,85,72,53,30.17,30.06,8,1,8,0.00
2013-1-12,49,35,28,30,25,20,83,70,47,30.17,30.07,8,2,8,0.00
2013-1-13,48,35,28,33,26,22,83,72,55,30.17,30.08,9,1,9,0.00
2013-1-14,48,35,28,33,27,23,85,74,53,30.33,30.14,8,1,8,0.00
2013-1-15,54,38,29,35,28,24,84,70,41,30.41,30.33,7,1,7,0.00
2013-1-16,40,39,34,32,30,26,75,73,69,30.37,30.24,3,0,3,0.00
2013-1-17,69,48,37,42,33,28,77,58,33,30.25,30.16,6,1,6,0.00
2013-1-18,71,50,41,41,32,25,62,49,30,30.21,30.14,6,2,6,0.00
2013-1-19,71,50,41,40,33,26,68,54,31,30.24,30.16,7,2,7,0.00
2013-1-20,69,50,40,41,34,26,66,54,34,30.22,30.12,7,2,7,0.00
2013-1-21,70,50,38,43,34,26,68,54,34,30.18,30.11,8,2,8,0.00
2013-1-22,77,54,41,40,29,23,65,39,18,30.14,30.06,9,2,9,0.00
2013-1-23,68,58,50,43,31,23,61,37,25,30.11,30.01,10,2,10,0.00
2013-1-24,63,56,52,53,48,41,91,77,52,30.17,30.06,8,1,8,0.22
2013-1-25,58,53,50,55,50,47,92,90,86,30.17,30.03,5,0,5,0.04
2013-1-26,61,52,45,56,49,41,93,88,78,30.03,29.96,5,0,5,0.04
2013-1-27,55,42,34,44,35,30,91,79,61,30.08,29.97,11,1,16,0.06
2013-1-28,55,40,30,40,32,27,89,75,52,30.20,30.05,8,1,8,0.00
2013-1-29,54,42,33,41,34,29,87,76,59,30.27,30.19,8,1,8,0.00
2013-1-30,65,46,35,46,38,32,88,76,48,30.32,30.24,8,1,8,0.00
2013-1-31,70,50,39,48,40,35,86,71,46,30.27,30.17,7,1,7,0.00
2013-2-1,73,52,41,49,40,33,79,65,42,30.22,30.12,9,2,9,0.00
2013-2-2,66,54,46,46,41,34,80,61,44,30.26,30.18,8,1,8,0.00
2013-2-3,69,51,42,50,42,35,87,71,47,30.20,30.09,6,1,6,0.00
2013-2-4,69,52,41,50,43,38,89,75,50,30.16,30.05,7,1,7,0.00
2013-2-5,66,50,41,50,43,36,90,76,54,30.07,30.00,7,1,7,0.00
2013-2-6,56,44,38,48,40,35,93,86,73,30.14,30.04,9,1,9,0.00
2013-2-7,61,45,37,45,38,34,92,79,53,30.14,29.94,8,1,8,0.07
2013-2-8,46,39,33,40,35,30,91,85,75,29.95,29.87,12,1,12,0.12
2013-2-9,54,42,32,42,35,30,91,78,59,30.07,29.90,8,1,8,0.00
2013-2-10,52,42,35,40,34,31,86,75,58,30.07,30.01,6,1,6,0.00
2013-2-11,62,44,34,41,34,29,86,68,43,30.21,30.04,8,2,8,0.00
2013-2-12,64,46,36,39,33,29,75,62,37,30.32,30.21,8,2,8,0.00
2013-2-13,67,49,39,43,35,31,76,62,39,30.29,30.19,6,2,6,0.00
2013-2-14,70,51,40,47,39,33,80,65,41,30.23,30.15,6,1,6,0.00
2013-2-15,75,55,43,48,39,32,73,58,35,30.27,30.20,7,2,7,0.00
2013-2-16,74,57,46,43,35,28,66,45,28,30.24,30.04,7,2,7,0.00
2013-2-17,71,53,44,42,33,23,75,48,31,30.04,29.95,9,2,9,0.00
2013-2-18,68,50,40,45,38,32,81,63,42,30.01,29.90,9,2,9,0.00
2013-2-19,41,37,33,36,32,29,87,83,77,29.93,29.70,4,0,4,0.02
2013-2-20,44,37,33,36,32,29,89,82,70,30.03,29.75,11,0,11,0.71
2013-2-21,50,41,34,41,35,31,88,80,66,30.14,29.99,7,1,7,0.00
2013-2-22,60,45,35,43,36,31,87,74,52,30.21,30.13,8,1,8,0.00
2013-2-23,61,46,38,44,37,30,84,70,54,30.20,30.04,16,2,16,0.00
2013-2-24,58,46,41,40,33,32,73,63,45,30.22,30.14,8,2,8,0.00
2013-2-25,67,49,36,43,35,30,80,62,36,30.24,30.11,13,2,13,0.00
2013-2-26,64,48,38,42,37,31,80,68,45,30.19,30.08,13,2,13,0.00
2013-2-27,69,52,40,45,39,34,81,63,38,30.32,30.18,8,2,8,0.00
2013-2-28,72,54,43,46,39,35,76,59,35,30.40,30.31,8,2,8,0.00
2013-3-1,77,58,44,50,42,34,76,57,37,30.39,30.25,10,2,10,0.00
2013-3-2,80,63,50,45,38,33,56,41,23,30.26,30.08,22,2,22,0.00
2013-3-3,65,57,45,47,43,39,79,61,48,30.14,30.01,9,1,9,0.00
2013-3-4,72,51,42,50,41,35,79,69,43,30.11,30.02,7,2,7,0.00
2013-3-5,72,55,44,48,41,32,80,60,41,30.06,29.91,16,2,16,0.00
2013-3-6,56,48,43,46,40,32,85,74,48,30.08,29.95,13,1,13,0.10
2013-3-7,56,46,42,44,40,37,89,79,59,29.96,29.84,7,1,7,0.11
2013-3-8,54,46,39,45,40,35,89,81,68,30.02,29.75,8,1,8,0.00
2013-3-9,60,48,41,45,40,36,86,76,55,30.27,30.02,7,1,7,0.00
2013-3-10,70,52,40,48,42,35,87,71,44,30.32,30.23,8,1,8,0.00
2013-3-11,75,56,42,51,44,37,82,65,41,30.25,30.11,8,2,8,0.00
2013-3-12,79,55,52,53,46,39,77,72,41,30.15,30.00,7,2,7,0.94
2013-3-13,86,64,48,55,44,35,69,50,29,30.19,30.09,7,2,7,0.00
2013-3-14,87,67,55,54,46,36,71,49,29,30.15,30.08,9,2,9,0.00
2013-3-15,83,65,53,58,50,42,83,59,39,30.09,30.03,10,1,10,0.00
2013-3-16,81,62,52,59,48,40,87,64,33,30.07,29.99,9,2,9,0.00
2013-3-17,78,60,48,49,40,34,70,51,24,30.08,30.01,10,2,10,0.00
2013-3-18,76,58,46,48,41,34,68,53,35,30.10,30.01,8,1,8,0.00
2013-3-19,81,62,48,50,44,40,76,54,30,30.19,30.05,11,2,11,0.02
2013-3-20,74,60,52,51,46,43,81,63,39,30.17,30.06,9,1,9,0.06
2013-3-21,72,56,44,53,45,40,84,69,49,30.06,29.95,12,1,12,0.00
2013-3-22,70,52,42,50,39,27,90,65,32,30.03,29.93,9,1,9,0.00
2013-3-23,72,54,41,43,37,29,75,55,33,30.10,30.01,8,2,9,0.00
2013-3-24,77,58,43,46,40,36,76,55,32,30.08,29.97,7,1,7,0.00
2013-3-25,77,61,49,50,42,38,71,53,31,30.01,29.93,8,2,8,0.00
2013-3-26,77,61,50,50,42,38,67,51,33,29.98,29.92,9,2,9,0.00
2013-3-27,78,62,50,50,44,38,78,53,35,30.01,29.92,7,2,7,0.00
2013-3-28,73,60,49,53,48,42,80,66,48,30.08,30.00,7,1,7,0.00
2013-3-29,84,64,50,51,45,39,76,53,30,30.11,30.03,8,2,8,0.00
2013-3-30,85,68,54,52,46,39,72,48,30,30.07,29.96,9,2,9,0.00
2013-3-31,75,60,50,53,48,43,86,67,42,30.10,29.98,10,1,10,0.49
2013-4-1,73,57,45,52,45,41,87,68,43,30.14,30.04,9,1,9,0.00
2013-4-2,76,58,45,52,46,39,82,66,41,30.14,30.06,9,1,9,0.00
2013-4-3,81,64,50,56,50,44,81,64,41,30.13,30.01,6,1,6,0.00
2013-4-4,74,59,53,56,49,43,85,70,48,30.15,30.01,9,1,9,0.12
2013-4-5,74,59,46,56,48,42,90,70,46,30.13,30.07,39,1,39,0.00
2013-4-6,77,59,47,54,47,42,84,66,38,30.15,30.07,9,1,9,0.00
2013-4-7,79,61,46,54,47,39,87,64,37,30.11,29.86,12,1,12,0.00
2013-4-8,62,51,43,47,39,23,85,65,34,29.90,29.74,20,2,20,0.08
2013-4-9,74,56,38,43,35,25,66,47,27,30.04,29.87,9,2,9,0.00
2013-4-10,83,64,46,46,41,35,67,47,26,30.17,30.04,8,2,8,0.00
2013-4-11,82,65,52,54,47,41,74,53,34,30.06,29.83,11,2,11,0.00
2013-4-12,86,66,51,56,48,42,81,57,35,29.93,29.84,12,1,12,0.00
2013-4-13,86,69,54,54,46,41,72,47,27,29.89,29.80,9,1,9,0.00
2013-4-14,80,63,49,52,42,32,77,49,24,29.89,29.80,11,1,11,0.00
2013-4-15,74,57,43,47,40,31,79,56,33,29.88,29.82,13,2,13,0.00
2013-4-16,67,49,34,41,33,23,82,56,33,30.03,29.86,14,1,14,0.00
2013-4-17,74,55,39,32,26,20,53,35,19,30.17,30.02,14,2,14,0.00
2013-4-18,77,60,44,37,30,22,52,34,21,30.24,30.16,12,1,12,0.00
2013-4-19,85,71,50,42,39,31,53,34,22,30.24,30.04,12,1,12,0.00
2013-4-20,86,68,51,49,43,38,62,43,27,30.07,29.99,9,1,9,0.00
2013-4-21,92,72,57,54,47,41,63,43,25,30.06,29.97,7,1,7,0.00
2013-4-22,94,74,59,55,47,40,62,41,24,30.00,29.87,12,1,12,0.00
2013-4-23,88,72,56,52,44,40,62,40,20,29.96,29.85,12,1,12,0.00
2013-4-24,93,74,57,50,42,36,52,35,21,29.90,29.81,12,1,12,0.00
2013-4-25,80,61,52,50,44,37,72,55,32,30.09,29.88,12,1,12,0.00
2013-4-26,89,69,52,55,47,40,73,49,28,30.19,30.08,10,1,10,0.00
2013-4-27,94,75,58,54,49,43,62,43,25,30.20,30.06,9,1,9,0.00
2013-4-28,96,77,60,57,50,46,64,42,20,30.06,29.92,57,2,57,0.00
2013-4-29,98,78,61,55,48,41,57,38,23,29.93,29.80,10,2,10,0.00
2013-4-30,92,74,59,54,45,36,62,38,20,29.84,29.77,11,2,11,0.00
2013-5-1,91,72,55,46,40,32,55,34,17,30.11,29.84,11,1,11,0.00
2013-5-2,96,78,62,46,40,30,39,27,16,30.19,30.09,10,1,10,0.00
2013-5-3,98,78,61,50,41,34,46,29,15,30.11,29.84,11,1,11,0.00
2013-5-4,96,77,62,48,40,35,46,29,16,29.85,29.65,11,1,11,0.00
2013-5-5,78,66,59,46,39,28,50,37,28,29.86,29.67,11,1,12,0.00
2013-5-6,78,64,52,46,44,40,78,50,32,29.99,29.86,11,1,11,0.25
2013-5-7,69,58,51,55,49,46,86,74,56,30.04,29.96,10,0,10,0.08
2013-5-8,72,61,53,57,51,47,87,72,49,30.11,30.03,7,0,9,0.04
2013-5-9,83,67,51,57,52,45,82,60,38,30.11,30.06,10,1,107,0.00
2013-5-10,92,73,56,59,54,49,78,54,32,30.16,30.08,11,1,11,0.00
2013-5-11,99,80,63,63,56,52,70,47,26,30.16,30.08,9,1,9,0.00
2013-5-12,104,84,67,60,51,42,55,35,18,30.15,30.03,13,2,13,0.00
2013-5-13,103,86,67,57,49,44,46,30,19,30.10,29.97,8,2,8,0.00
2013-5-14,70,67,66,50,49,48,56,52,48,29.99,29.97,3,0,3,0.00
2013-5-15,95,76,59,56,47,38,62,40,19,30.03,29.96,10,1,10,0.00
2013-5-16,72,64,53,49,45,39,64,51,42,30.02,29.95,5,0,5,0.00
2013-5-17,84,67,51,53,42,31,79,45,24,30.03,29.93,12,1,12,0.00
2013-5-18,88,68,50,46,39,31,59,37,20,30.10,30.01,12,1,14,0.00
2013-5-19,92,72,53,49,42,35,56,36,22,30.07,29.97,16,2,16,0.00
2013-5-20,95,76,58,49,42,34,47,31,20,30.04,29.96,9,1,9,0.00
2013-5-21,95,76,57,50,39,33,45,29,14,29.97,29.88,9,2,9,0.00
2013-5-22,78,61,44,45,32,17,74,39,18,29.94,29.86,12,1,12,0.00
2013-5-23,81,62,44,38,30,22,52,31,17,29.97,29.88,15,1,15,0.00
2013-5-24,87,67,48,41,34,26,50,31,19,29.99,29.92,9,1,9,0.00
2013-5-25,88,69,52,43,35,29,48,31,19,30.00,29.94,10,1,10,0.00
2013-5-26,85,68,50,48,41,33,55,40,25,30.07,29.99,14,1,14,0.00
2013-5-27,86,66,50,50,45,40,69,49,23,30.07,29.98,13,1,13,0.00
2013-5-28,84,69,56,57,50,45,73,54,32,30.00,29.89,13,2,13,0.00
2013-5-29,88,70,57,55,49,42,67,49,32,29.95,29.87,13,2,13,0.00
2013-5-30,92,74,56,54,46,38,68,41,21,29.98,29.90,12,2,12,0.00
2013-5-31,96,78,59,51,44,38,52,33,20,30.02,29.94,10,1,10,0.00
2013-6-1,104,83,64,54,48,40,49,31,18,29.97,29.83,11,2,11,0.00
2013-6-2,106,87,69,54,47,42,41,27,17,29.84,29.72,9,2,9,0.00
2013-6-3,100,82,64,56,50,42,50,34,23,29.85,29.74,11,1,11,0.00
2013-6-4,97,80,65,58,53,50,59,41,26,29.94,29.83,10,1,10,0.00
2013-6-5,99,82,64,60,54,50,64,42,26,29.99,29.90,10,1,10,0.00
2013-6-6,103,84,68,61,55,50,56,40,24,29.95,29.90,13,1,13,0.00
2013-6-7,107,87,70,63,58,52,55,39,24,29.91,29.83,8,1,8,0.00
2013-6-8,112,93,73,67,60,53,52,36,22,29.85,29.77,13,2,13,0.00
2013-6-9,104,88,73,64,57,46,57,37,22,29.89,29.81,12,1,12,0.00
2013-6-10,86,74,60,57,51,46,70,46,30,29.98,29.82,12,1,12,0.00
2013-6-11,99,80,62,56,51,46,60,41,23,30.01,29.92,11,1,11,0.00
2013-6-12,100,83,65,58,46,30,46,30,13,29.99,29.92,12,2,12,0.00
2013-6-13,94,76,57,44,37,32,42,27,13,30.08,29.96,10,1,10,0.00
2013-6-14,98,79,59,48,39,31,41,26,16,29.97,29.88,9,2,9,0.00
2013-6-15,100,81,62,47,38,31,37,24,13,29.97,29.87,13,2,13,0.00
2013-6-16,98,81,60,48,40,32,39,25,17,30.07,29.96,15,2,15,0.00
2013-6-17,98,77,61,51,42,32,48,30,16,30.07,30.01,19,2,19,0.00
2013-6-18,90,72,56,51,41,34,50,35,21,30.01,29.94,12,1,12,0.00
2013-6-19,87,70,48,49,41,31,69,39,21,30.02,29.94,14,2,14,0.00
2013-6-20,92,73,53,46,39,30,47,31,19,29.98,29.93,13,2,13,0.00
2013-6-21,95,76,56,49,42,36,49,32,18,30.01,29.91,14,2,14,0.00
2013-6-22,100,81,61,49,43,35,42,28,17,29.97,29.87,12,2,12,0.00
2013-6-23,92,77,62,53,46,38,59,36,22,29.90,29.83,14,2,14,0.00
2013-6-24,80,70,62,60,55,50,74,60,47,29.95,29.83,7,0,7,0.02
2013-6-25,97,79,64,62,57,53,70,50,31,30.03,29.93,12,1,12,0.00
2013-6-26,100,83,66,65,58,53,64,45,29,30.07,29.98,13,2,13,0.00
2013-6-27,105,87,69,65,58,54,60,41,25,30.11,30.04,13,2,13,0.00
2013-6-28,109,91,73,66,59,54,54,36,23,30.07,29.97,10,2,10,0.00
2013-6-29,113,94,76,65,58,54,50,33,18,30.00,29.89,13,2,13,0.00
2013-6-30,115,95,79,65,58,54,47,31,18,29.91,29.84,11,2,11,0.00
2013-7-1,114,96,80,65,57,48,40,28,18,29.95,29.85,13,2,13,0.00
2013-7-2,112,95,81,65,58,50,47,31,19,30.01,29.90,16,1,16,0.00
2013-7-3,112,93,78,65,58,54,46,33,22,29.97,29.84,11,2,11,0.00
2013-7-4,113,95,78,67,61,55,46,34,22,29.87,29.80,12,2,12,0.00
2013-7-5,109,92,76,68,55,40,54,31,15,29.84,29.77,12,1,12,0.00
2013-7-6,106,85,70,57,46,38,39,27,17,29.87,29.80,11,2,11,0.00
2013-7-7,108,89,72,54,47,42,36,25,15,29.91,29.83,10,2,10,0.00
2013-7-8,108,88,70,48,40,32,29,20,10,30.02,29.88,12,2,12,0.00
2013-7-9,112,92,74,48,39,32,24,17,10,30.09,30.01,11,2,11,0.00
2013-7-10,79,78,77,36,34,34,21,21,21,30.03,30.03,5,1,5,0.00
2013-7-12,73,73,72,34,34,33,25,24,24,29.94,29.94,5,2,5,0.00
2013-7-13,106,86,0,52,42,-38,32,22,14,30.01,29.93,13,2,39,0.00
2013-7-14,106,88,71,50,43,35,29,22,14,30.04,29.91,12,2,12,0.00
2013-7-15,104,85,70,53,44,37,35,25,15,29.93,29.84,14,2,14,0.00
2013-7-16,100,82,65,52,43,36,41,27,17,30.02,29.86,14,1,14,0.00
2013-7-17,99,82,64,55,44,36,38,28,19,30.11,30.01,11,2,11,0.00
2013-7-18,103,81,66,55,46,40,42,31,18,30.07,29.97,12,2,12,0.00
2013-7-19,106,88,69,54,47,39,37,26,17,29.98,29.88,10,2,10,0.00
2013-7-20,109,90,73,56,50,45,37,27,17,29.90,29.82,12,2,12,0.00
2013-7-21,110,92,76,58,50,44,37,26,17,29.94,29.82,10,2,10,0.00
2013-7-22,104,87,75,63,53,44,58,33,20,30.00,29.91,13,1,13,0.06
2013-7-23,99,80,74,62,60,44,62,51,27,30.06,29.96,10,1,10,0.00
2013-7-24,105,88,71,60,53,46,49,33,3,30.03,29.93,12,1,12,0.00
2013-7-25,104,89,74,61,56,50,46,34,24,30.03,29.96,10,1,10,0.00
2013-7-26,108,90,75,64,55,49,50,33,18,30.11,30.02,10,2,10,0.00
2013-7-27,106,87,73,61,50,43,42,30,17,30.03,29.90,11,1,11,0.00
2013-7-28,105,87,72,58,49,43,40,28,17,29.93,29.85,12,2,12,0.00
2013-7-29,103,85,69,60,50,43,46,31,20,30.01,29.85,14,2,14,0.00
2013-7-30,100,83,68,59,49,39,44,31,18,30.10,30.00,11,2,11,0.00
2013-7-31,101,83,66,58,48,39,48,32,18,30.09,30.00,14,2,14,0.00
2013-8-1,98,80,64,50,39,32,41,26,13,30.07,29.95,14,2,14,0.00
2013-8-2,92,69,62,46,36,32,35,30,21,30.00,29.94,8,2,8,0.00
2013-8-6,100,89,68,54,48,41,42,25,19,30.04,29.99,12,2,12,0.00
2013-8-7,93,77,61,56,48,40,51,37,22,30.10,30.00,14,1,14,0.00
2013-8-8,93,75,60,55,46,38,54,38,23,30.03,29.94,11,1,11,0.00
2013-8-9,95,78,62,52,44,38,46,32,21,29.99,29.91,11,2,11,0.00
2013-8-10,95,78,62,52,45,39,44,32,19,30.05,29.96,12,2,12,0.00
2013-8-11,97,79,62,53,46,41,46,33,21,30.04,29.98,14,2,14,0.00
2013-8-12,101,82,64,51,46,41,45,30,17,30.04,29.95,10,2,10,0.00
2013-8-13,104,84,67,52,44,38,39,27,15,30.03,29.97,12,2,12,0.00
2013-8-14,105,85,68,51,42,36,34,24,14,30.03,29.96,10,2,10,0.00
2013-8-15,106,86,68,50,38,30,27,20,10,30.02,29.96,12,2,12,0.00
2013-8-16,105,88,70,54,41,30,28,20,14,30.03,29.97,17,2,17,0.00
2013-8-17,106,87,72,56,46,40,41,26,15,30.02,29.90,18,2,18,0.00
2013-8-18,100,86,70,58,50,42,38,29,20,29.96,29.87,7,1,7,0.00
2013-8-19,83,83,82,56,54,53,40,38,36,29.97,29.89,5,1,5,0.00
2013-8-20,106,89,73,61,56,51,48,34,21,29.95,29.88,10,1,10,0.00
2013-8-21,103,84,71,60,49,35,53,33,14,29.98,29.90,9,1,9,0.00
2013-8-22,104,85,69,52,44,36,42,25,15,29.99,29.90,7,1,7,0.00
2013-8-23,99,81,65,56,45,36,42,30,20,29.95,29.85,12,1,12,0.00
2013-8-24,100,80,65,53,46,41,43,31,19,29.94,29.86,9,1,9,0.00
2013-8-25,98,79,64,56,47,41,44,34,21,30.01,29.90,12,1,12,0.00
2013-8-26,98,81,65,56,49,41,45,34,21,30.02,29.93,12,1,12,0.00
2013-8-27,100,83,68,57,50,44,46,33,23,29.95,29.88,9,1,9,0.00
2013-8-28,101,84,71,58,52,45,49,35,24,29.98,29.88,11,1,11,0.00
2013-8-29,103,84,70,58,51,44,48,33,23,30.08,29.98,12,2,12,0.00
2013-8-30,102,84,68,59,50,44,44,31,21,30.08,29.99,12,1,12,0.00
2013-8-31,104,85,71,57,50,44,40,31,20,30.03,29.96,10,1,10,0.00
2013-9-1,101,82,71,58,53,48,48,37,23,30.00,29.93,10,1,10,0.00
2013-9-2,99,83,70,63,58,53,55,43,29,30.00,29.91,10,1,10,0.00
2013-9-3,97,80,68,62,56,51,63,46,29,30.03,29.93,10,1,10,0.00
2013-9-4,72,70,68,53,52,51,57,54,50,30.00,29.98,4,0,4,0.00